SCP
0 0 0 0 0 0 0 0 0 0 0 0 0 0 0 0 0 0 0 0 0 0 0 0 0 0 0 0 0 0 1 1 1 1 1 1 1 0 0 0 0 0 0
0 0 0 0 0 0 0 0 0 0 0 0 0 0 0 0 0 0 0 0 0 0 0 0 0 0 0 0 0 0 0 1 1 1 1 1 1 1 0 0 0 0 0
0 0 0 0 0 0 0 0 0 0 0 0 0 0 0 0 0 0 0 0 0 0 0 0 0 0 0 0 0 0 0 0 1 1 1 1 1 1 0 0 0 0 0
0 0 0 0 0 0 0 0 0 0 0 0 0 0 0 0 0 0 0 0 0 0 0 0 0 0 0 0 0 0 0 0 0 1 1 1 1 1 0 0 0 0 0
0 0 0 0 0 0 0 0 0 0 0 0 0 0 0 0 0 0 0 0 0 0 0 0 0 0 0 0 0 0 0 0 0 0 1 1 1 1 0 0 0 0 0
0 0 0 0 0 0 0 0 0 0 0 0 0 0 0 0 0 0 0 0 0 0 0 0 0 0 0 0 0 0 0 0 0 0 0 1 1 1 0 0 0 0 0
0 0 0 0 0 0 0 0 0 0 0 0 0 0 0 0 0 0 0 0 0 0 0 0 0 0 0 0 0 0 0 0 0 0 0 0 0 1 0 0 0 0 0
0 0 0 0 0 0 0 0 0 0 0 0 0 0 0 0 0 0 0 0 0 0 0 0 0 0 0 0 0 0 0 0 0 0 0 0 0 0 0 0 0 0 0
0 0 0 0 0 0 0 0 0 0 0 0 0 0 0 0 0 0 0 0 0 0 0 0 0 0 0 0 0 0 0 0 0 0 0 0 0 0 0 0 0 0 0
0 0 0 0 0 0 0 0 0 0 0 0 0 0 0 0 0 0 0 0 0 0 0 0 0 0 0 0 0 0 0 0 0 0 0 0 0 0 0 0 0 0 0
0 0 0 0 0 0 0 0 0 0 0 0 0 0 0 0 0 0 0 0 0 0 0 0 0 0 0 0 0 0 0 0 0 0 0 0 0 0 0 0 0 0 0
0 0 0 0 0 0 0 0 0 0 0 0 0 0 0 0 0 0 0 0 0 0 0 0 0 0 0 0 0 0 0 0 0 0 0 0 0 0 0 0 0 0 0
0 0 0 0 0 0 0 0 0 0 0 0 0 0 0 0 0 0 0 0 0 0 0 0 0 0 0 0 0 0 0 0 0 0 0 0 0 0 0 0 0 0 0
0 0 0 0 0 0 0 0 0 0 0 0 0 0 0 0 0 0 0 0 0 0 0 0 0 0 0 0 0 0 0 0 0 0 0 0 0 0 0 0 0 0 0
0 0 0 0 0 0 0 0 0 0 0 0 0 0 0 0 0 0 0 0 0 0 0 0 0 0 0 0 0 0 0 0 0 0 0 0 0 0 0 0 0 0 0
0 0 0 0 0 0 0 0 0 0 0 0 0 0 0 0 0 0 0 0 0 0 0 0 0 0 0 0 0 0 0 0 0 0 0 0 0 0 0 0 0 0 0
0 0 0 0 0 0 0 0 0 0 0 0 0 0 0 0 -0 -0 -0 0 0 0 0 0 0 0 0 0 0 0 0 0 0 0 0 0 0 0 0 0 0 0 0
0 0 0 0 0 0 0 0 0 0 0 0 0 0 0 0 0 0 0 0 0 0 0 0 0 0 0 0 0 0 0 0 0 0 0 0 0 0 0 0 0 0 0
0 0 0 0 0 0 0 0 0 0 0 0 0 0 0 0 0 0 0 0 0 0 0 0 0 0 0 0 0 0 0 0 0 0 0 0 0 0 0 0 0 0 0
0 0 0 0 0 0 0 0 0 0 0 0 0 0 0 0 0 0 0 0 0 0 0 0 0 0 0 0 0 0 0 0 0 0 0 0 0 0 0 0 0 0 0
0 0 0 0 0 0 0 0 0 0 0 0 0 0 0 0 0 0 0 0 0 0 0 0 0 0 0 0 0 0 0 0 0 0 0 0 0 0 0 0 0 0 0
0 0 0 0 0 0 0 0 0 0 0 0 0 0 0 0 0 0 0 0 0 0 0 0 0 0 0 0 0 0 0 0 0 0 0 0 0 0 0 0 0 0 0
0 0 0 0 0 0 0 0 0 0 0 0 0 0 0 0 0 0 0 0 0 0 0 0 0 0 0 0 0 0 0 0 0 0 0 0 0 0 0 0 0 0 0
0 0 0 0 0 0 0 0 0 0 0 0 0 0 0 0 0 0 0 0 0 0 0 0 0 0 0 0 0 0 0 0 0 0 0 0 0 0 0 0 0 0 0
0 0 0 0 0 0 0 0 0 0 0 0 0 0 0 0 0 0 0 0 0 0 0 0 0 0 0 0 0 0 0 0 0 0 0 0 0 0 0 0 0 0 0
0 0 0 0 0 0 0 0 0 0 0 0 0 0 0 0 0 0 0 0 0 0 0 0 0 0 0 0 0 0 0 0 0 0 0 0 0 0 0 0 0 0 0
Wind_Speed
6 6 6 7 7 7 7 7 7 7 8 8 9 9 9 9 8 7 7 7 7 6 6 5 5 4 3 3 3 3 3 2 2 2 4 7 8 8 7 6 6 5 5
7 6 7 7 7 8 8 7 7 7 8 9 9 9 10 10 9 8 9 10 9 8 7 7 7 5 5 3 3 3 3 3 2 3 5 6 7 9 8 6 6 7 5
8 8 8 9 8 8 8 8 8 8 8 9 9 9 9 9 10 10 9 9 10 9 8 8 8 8 7 5 4 3 3 3 2 2 4 5 6 8 8 7 8 6 6
9 9 9 9 9 9 9 9 8 9 9 9 9 9 9 10 10 10 11 10 10 10 9 8 8 9 8 8 6 5 4 3 2 3 3 5 6 8 8 8 6 5 5
9 10 10 9 9 9 9 9 9 9 11 10 9 10 10 10 11 10 9 12 10 10 10 9 9 10 11 9 8 7 6 4 3 3 4 4 6 8 8 7 7 6 4
9 10 10 10 10 10 10 10 10 10 10 10 10 11 11 12 13 11 9 8 9 9 9 9 10 10 12 13 13 12 11 9 7 5 4 5 6 8 7 9 9 7 4
10 10 10 11 12 12 13 12 11 11 11 10 11 11 11 11 14 15 14 10 10 9 9 9 12 12 13 11 12 13 12 12 11 7 6 6 5 6 8 10 10 9 5
11 11 11 11 12 12 12 13 12 10 10 10 10 11 11 12 14 14 15 13 11 10 10 9 10 9 9 10 11 11 10 10 10 8 6 5 4 2 5 7 9 8 8
11 11 12 12 13 14 14 13 12 10 10 10 10 10 11 11 13 14 13 10 9 10 10 10 11 10 11 11 10 10 9 8 10 11 9 7 5 3 3 5 9 11 9
11 12 13 13 14 14 14 13 11 10 10 10 10 10 10 10 11 12 12 8 8 7 7 9 12 11 11 12 9 9 9 8 8 10 9 8 7 6 7 7 9 11 10
11 12 13 13 14 14 13 10 10 10 10 10 10 9 9 9 9 10 11 7 6 6 6 6 6 10 12 13 10 7 8 7 7 8 8 7 6 6 6 7 7 9 10
11 13 14 14 14 13 12 11 10 9 9 9 8 8 6 5 5 5 7 8 5 4 4 3 3 9 12 12 9 6 8 7 5 6 6 6 6 7 6 8 7 6 6
12 13 14 15 13 13 11 11 9 7 6 7 6 6 5 4 2 3 4 5 4 1 0 1 2 7 9 8 9 9 8 5 5 5 6 6 6 6 7 6 6 6 7
12 13 13 13 13 12 9 8 7 6 6 6 6 5 4 4 3 1 3 4 5 4 3 3 5 5 5 5 7 7 6 5 5 5 5 6 6 6 7 7 7 8 7
13 12 13 12 12 11 9 7 8 5 4 5 6 5 4 3 4 5 3 1 1 1 3 4 4 5 5 5 5 6 6 6 5 4 4 5 6 7 7 8 8 8 7
11 11 10 10 10 9 9 9 7 6 5 5 4 4 3 1 2 3 3 4 4 2 2 4 5 5 6 7 7 7 7 7 6 6 5 5 6 7 8 8 9 9 9
11 11 10 10 10 9 9 8 7 4 6 7 6 6 6 4 3 2 1 1 1 1 3 4 5 5 6 6 6 6 7 7 6 5 5 5 6 8 9 10 10 9 9
12 12 11 9 9 9 9 8 6 5 4 3 6 8 7 6 5 4 2 2 4 4 6 6 5 5 5 5 6 6 6 6 6 5 5 5 6 8 10 10 10 12 11
11 9 9 10 10 9 8 7 5 5 4 3 2 5 7 6 5 5 4 5 6 6 6 6 5 5 4 5 5 5 5 5 6 6 6 6 7 8 10 11 11 15 13
10 12 12 10 10 9 7 6 5 4 4 3 2 2 4 5 5 5 6 7 6 6 5 5 5 5 5 5 5 4 4 4 5 5 6 6 7 8 10 12 12 13 12
9 10 13 11 8 8 7 6 5 5 4 3 1 1 1 3 4 4 5 6 6 5 5 4 4 4 4 4 4 5 6 5 5 5 6 7 8 8 9 10 12 12 12
9 9 9 9 8 8 8 7 5 5 5 4 2 3 4 5 4 4 4 4 5 4 3 3 3 3 3 4 5 5 5 5 5 6 6 7 8 9 10 11 11 11 11
8 9 9 8 8 9 8 6 5 5 5 4 3 1 3 4 3 3 4 3 3 3 3 3 4 4 3 3 3 4 4 5 5 6 7 8 9 10 10 11 14 13 13
8 9 9 9 8 8 8 6 5 5 5 5 3 2 2 2 3 3 3 2 2 3 3 3 3 3 3 2 2 3 3 3 4 6 9 9 10 10 11 12 13 14 13
8 8 8 8 8 8 8 7 6 5 5 4 4 4 3 3 2 2 2 2 2 3 3 2 1 2 3 4 3 3 4 4 3 4 7 9 11 12 12 13 11 12 11
8 8 8 7 8 8 8 7 6 5 5 5 4 4 4 3 3 3 2 1 1 1 1 1 2 3 3 3 5 6 6 5 4 4 5 8 10 11 13 11 14 12 12
Wind_Direction
332 331 324 316 313 306 299 301 308 310 310 305 301 297 294 289 280 265 251 249 234 221 213 215 222 219 243 269 286 299 296 283 235 187 142 143 136 131 131 128 139 120 88
331 325 317 313 309 306 307 308 304 300 299 299 298 296 292 289 285 277 264 254 242 231 220 212 211 208 209 225 246 265 279 288 266 200 151 152 149 139 138 136 124 105 95
323 319 315 311 308 305 303 300 297 294 291 291 289 288 287 287 285 280 273 265 255 244 231 219 210 202 202 199 207 224 245 267 275 227 188 162 148 144 134 120 109 109 106
321 315 309 306 304 302 299 296 295 293 291 287 286 284 282 281 279 276 272 268 260 252 242 228 216 206 203 196 199 204 208 220 242 243 216 172 155 149 138 134 128 125 118
314 309 305 303 302 299 297 296 294 292 292 291 289 285 280 277 269 265 262 264 259 253 248 237 227 216 209 197 195 192 192 194 203 220 218 190 167 162 159 152 141 127 111
310 307 306 304 303 301 299 296 295 294 293 290 284 282 278 276 281 287 282 278 274 264 254 246 241 226 216 200 195 190 188 192 195 201 208 206 194 177 162 154 146 147 143
311 310 308 308 308 306 305 303 299 298 295 289 283 279 275 270 269 268 266 263 261 258 249 242 243 232 208 197 195 193 194 196 193 187 203 209 200 187 168 161 162 161 144
315 314 313 311 309 306 303 299 297 295 293 289 283 279 275 271 265 257 256 257 255 248 241 234 234 244 223 197 189 194 198 198 197 195 200 207 203 207 180 167 158 134 120
317 317 316 313 307 304 301 299 298 295 292 288 284 278 275 273 265 256 247 253 247 244 236 232 227 227 227 203 191 192 196 197 199 200 199 198 198 211 209 157 153 146 141
322 320 314 308 304 302 298 295 295 293 290 290 286 282 280 277 268 252 239 245 244 240 234 234 228 220 211 194 192 192 198 197 186 190 200 205 204 211 205 181 167 157 146
322 316 311 306 302 297 293 294 294 294 293 291 288 286 282 277 269 248 231 233 236 231 227 222 220 202 197 194 193 192 196 191 184 183 190 198 199 198 189 185 184 168 158
318 314 311 307 305 302 301 298 295 293 293 291 290 293 289 283 270 251 225 224 242 239 227 217 211 194 197 193 191 188 180 181 184 183 186 193 193 193 187 186 185 170 152
318 313 310 308 305 300 297 297 298 297 296 299 303 305 308 306 283 230 206 206 216 240 23 59 211 190 189 195 200 179 174 194 194 188 192 196 190 185 175 168 149 132 117
316 313 311 308 306 303 300 297 297 300 306 315 317 319 324 325 325 282 192 185 184 193 199 172 175 184 200 205 182 185 200 209 202 203 193 186 177 176 170 153 142 132 119
316 313 311 308 305 303 301 295 294 297 300 295 312 322 329 334 6 18 19 49 130 151 195 186 185 181 201 208 198 191 202 211 214 212 198 183 176 173 164 151 146 142 138
315 314 311 307 304 303 302 304 289 272 254 242 249 285 304 316 341 11 52 59 47 41 213 209 211 210 209 206 203 200 201 208 208 203 195 183 176 171 160 153 155 153 149
312 309 307 304 303 304 304 303 304 281 239 242 242 252 261 282 286 303 359 36 10 16 237 231 220 218 219 217 211 207 205 205 203 199 187 183 175 167 163 161 161 156 154
311 307 305 304 304 304 304 303 304 306 293 257 222 227 236 247 252 247 231 241 233 220 236 240 230 225 219 220 220 216 208 199 192 188 184 181 175 168 167 167 166 162 158
312 310 312 310 305 303 304 307 309 314 305 289 217 190 213 224 233 235 216 236 241 232 228 230 229 225 224 220 218 214 207 191 185 181 182 179 177 173 171 170 167 164 161
311 309 311 309 308 310 311 315 320 320 317 310 265 223 181 201 216 203 211 229 241 246 248 241 233 223 212 209 208 203 200 191 184 184 182 181 177 176 173 171 168 167 170
314 315 315 313 317 320 320 322 327 324 317 313 303 132 224 250 247 235 223 224 233 238 238 237 233 224 212 197 200 204 207 199 192 190 187 183 177 175 172 170 169 170 170
311 315 319 319 322 321 322 316 323 326 324 327 309 192 210 253 264 248 238 232 231 233 237 241 241 229 217 208 200 200 206 202 195 189 184 180 177 174 170 169 170 171 170
313 319 321 321 321 319 318 325 332 332 335 331 325 302 225 247 259 259 253 250 237 222 220 231 249 247 227 204 195 196 207 201 189 182 179 178 175 172 168 168 170 170 170
317 321 324 325 326 329 331 334 339 344 345 337 334 332 309 289 280 271 268 257 244 240 236 236 241 230 202 188 177 190 193 177 179 186 182 178 173 170 167 169 172 173 170
325 329 328 328 328 330 330 335 341 344 345 340 343 346 338 329 314 297 287 271 251 247 246 237 233 214 198 194 184 152 127 134 164 180 173 172 169 166 164 167 169 167 163
333 334 330 331 330 330 329 332 338 344 349 356 359 358 358 350 338 332 326 314 281 264 256 202 175 168 159 144 127 124 126 128 136 141 155 161 160 160 161 162 161 159 157